World > North America > United States > Michigan   City of Ann Arbor, Michigan
Hourly Weather in Ann Arbor, MichiganAnn Arbor, Michigan Hourly Weather

Ann Arbor, MI Hourly Weather

Hourly Weather Ann Arbor, MichiganHourly Weather in Ann Arbor, MI
Lat: 42.28N, Lon: 83.73W  ICAO: KARB
Web Search
Ann Arbor Weather Warning NWS WEATHER ALERT FOR THE ANN ARBOR, MI AREA - Issued: 427 AM EDT Wed Oct 20 2021 Ann Arbor Weather Warning  

If you are on your PC, you can easily pass this page to your phone by scanning the QR Code near the bottom with your camera.

Feedback

Ann Arbor Hourly Weather

36 Hour Weather Scroll   °F Click to change Ann Arbor hourly weather to Imperial units.Click to change Ann Arbor hourly weather to Metric units. °C
Currently, Clear, temperature is 67°F19°C, dew point 49°F9°C, humidity 53%. Wind direction is SW at 6 mph10 km/h with visibility of 10.00 mi16 km. Barometric pressure is 30 in1016 mb.

Oct 20
6:00 PM

Oct 20
7:00 PM

Oct 20
8:00 PM

Oct 20
9:00 PM

Oct 20
10:00 PM

Oct 20
11:00 PM

Oct 21
MIDNIGHT

Oct 21
1:00 AM

Oct 21
2:00 AM

Oct 21
3:00 AM

Oct 21
4:00 AM

Oct 21
5:00 AM

Oct 21
6:00 AM

Oct 21
7:00 AM

Oct 21
8:00 AM

Oct 21
9:00 AM

Oct 21
10:00 AM

Oct 21
11:00 AM

Oct 21
NOON

Oct 21
1:00 PM

Oct 21
2:00 PM

Oct 21
3:00 PM

Oct 21
4:00 PM

Oct 21
5:00 PM

Oct 21
6:00 PM

Oct 21
7:00 PM

Oct 21
8:00 PM

Oct 21
9:00 PM

Oct 21
10:00 PM

Oct 21
11:00 PM

Oct 22
MIDNIGHT

Oct 22
1:00 AM

Oct 22
2:00 AM

Oct 22
3:00 AM

Oct 22
4:00 AM

Oct 22
5:00 AM
Clear Cloudy Cloudy Cloudy Cloudy Cloudy Cloudy Cloudy Cloudy Cloudy Cloudy Cloudy Cloudy Cloudy Cloudy Cloudy Cloudy Cloudy Cloudy Cloudy Cloudy Cloudy Cloudy Cloudy Cloudy Cloudy Cloudy Cloudy Cloudy Cloudy Cloudy Cloudy Cloudy Cloudy Clear Clear
Clear Cloudy Cloudy Cloudy Cloudy Cloudy Cloudy Cloudy Cloudy Cloudy Cloudy Cloudy Cloudy Cloudy Cloudy Cloudy Cloudy Cloudy Cloudy Cloudy Cloudy Cloudy Cloudy Cloudy Cloudy Cloudy Cloudy Cloudy Cloudy Cloudy Cloudy Cloudy Cloudy Cloudy Clear Clear
66°F19°C 63°F17°C 60°F16°C 59°F15°C 57°F14°C 56°F13°C 56°F13°C 55°F13°C 55°F13°C 55°F13°C 55°F13°C 55°F13°C 55°F13°C 55°F13°C 55°F13°C 57°F14°C 59°F15°C 61°F16°C 62°F17°C 62°F17°C 63°F17°C 62°F17°C 62°F17°C 61°F16°C 59°F15°C 57°F14°C 55°F13°C 54°F12°C 52°F11°C 51°F11°C 50°F10°C 48°F9°C 47°F8°C 46°F8°C 45°F7°C 44°F7°C
- - - - - - - - - Rain Rain Rain Rain Rain Rain Rain Rain Rain Rain Rain Rain - - - - - - - - - - - - - - -
0% 0% 0% 19% 19% 19% 19% 19% 19% 81% 81% 81% 81% 81% 81% 37% 37% 37% 37% 37% 37% 10% 10% 10% 10% 10% 10% 20% 20% 20% 20% 20% 20% 7% 7% 7%
48°F9°C 49°F9°C 49°F9°C 49°F9°C 49°F9°C 49°F9°C 49°F9°C 50°F10°C 50°F10°C 50°F10°C 50°F10°C 50°F10°C 50°F10°C 51°F11°C 51°F11°C 51°F11°C 52°F11°C 52°F11°C 51°F11°C 50°F10°C 49°F9°C 49°F9°C 48°F9°C 48°F9°C 48°F9°C 48°F9°C 48°F9°C 47°F8°C 46°F8°C 45°F7°C 44°F7°C 43°F6°C 42°F6°C 41°F5°C 40°F4°C 39°F4°C
52% 60% 67% 69% 75% 77% 77% 83% 83% 83% 83% 83% 83% 86% 86% 80% 78% 72% 67% 65% 60% 62% 60% 62% 67% 72% 77% 77% 80% 80% 80% 83% 83% 83% 83% 82%
SW SW SW SW SW SW SW SSE SSE SSE SSE SSE SSE SW SW SW SW SW SSW SSW SSW SSW W W W W W WNW NW NW NW NW NW NW NNW NNW
7 mph 4 mph 4 mph 4 mph 3 mph 3 mph 3 mph 4 mph 4 mph 4 mph 5 mph 5 mph 5 mph 7 mph 7 mph 7 mph 9 mph 9 mph 9 mph 12 mph 12 mph 12 mph 12 mph 12 mph 12 mph 9 mph 9 mph 9 mph 9 mph 9 mph 9 mph 8 mph 8 mph 8 mph 5 mph 5 mph
10 mi16 km 10 mi16 km 10 mi16 km 10 mi16 km 10 mi16 km 10 mi16 km 10 mi16 km 10 mi16 km 10 mi16 km 10 mi16 km 10 mi16 km 10 mi16 km 10 mi16 km 10 mi16 km 10 mi16 km 10 mi16 km 10 mi16 km 10 mi16 km 10 mi16 km 10 mi16 km 10 mi16 km 10 mi16 km 10 mi16 km 10 mi16 km 10 mi16 km 10 mi16 km 10 mi16 km 10 mi16 km 10 mi16 km 10 mi16 km 10 mi16 km 10 mi16 km 10 mi16 km 10 mi16 km 10 mi16 km 10 mi16 km
Hour (EDT)
Weather
Clouds
Temperature
Precip. Type
POP
Dewpoint
Humidity
Wind Direction
Wind Speed
Visibility
POP = Probability of Precipitation. ** Indicates missing data/values from model statistics.

24 Hour Forecast

Tonight - Mostly cloudy. Scattered rain showers and thunderstorms until early morning, then rain showers and scattered thunderstorms early in the morning. Lows in the mid 50s. South winds 5 to 10 mph. Chance of precipitation 90%.
Thursday - Cooler. Mostly cloudy. Rain showers likely and chance of thunderstorms in the morning, then chance of rain showers in the afternoon. Highs in the lower 60s. West winds 10 to 20 mph. Chance of precipitation 70%.

48 Hour Forecast API Feed


Wed, Oct 20
6:00 pm

Wed, Oct 20
7:00 pm

Wed, Oct 20
8:00 pm

Wed, Oct 20
9:00 pm

Wed, Oct 20
10:00 pm

Wed, Oct 20
11:00 pm

Thu, Oct 21
Midnight

Thu, Oct 21
1:00 am

Thu, Oct 21
2:00 am

Thu, Oct 21
3:00 am

Thu, Oct 21
4:00 am

Thu, Oct 21
5:00 am

Thu, Oct 21
6:00 am

Thu, Oct 21
7:00 am

Thu, Oct 21
8:00 am

Thu, Oct 21
9:00 am

Thu, Oct 21
10:00 am

Thu, Oct 21
11:00 am

Thu, Oct 21
Noon

Thu, Oct 21
1:00 pm

Thu, Oct 21
2:00 pm

Thu, Oct 21
3:00 pm

Thu, Oct 21
4:00 pm

Thu, Oct 21
5:00 pm

Thu, Oct 21
6:00 pm

Thu, Oct 21
7:00 pm

Thu, Oct 21
8:00 pm

Thu, Oct 21
9:00 pm

Thu, Oct 21
10:00 pm

Thu, Oct 21
11:00 pm

Fri, Oct 22
Midnight

Fri, Oct 22
1:00 am

Fri, Oct 22
2:00 am

Fri, Oct 22
3:00 am

Fri, Oct 22
4:00 am

Fri, Oct 22
5:00 am

Fri, Oct 22
6:00 am

Fri, Oct 22
7:00 am

Fri, Oct 22
8:00 am

Fri, Oct 22
9:00 am

Fri, Oct 22
10:00 am

Fri, Oct 22
11:00 am

Fri, Oct 22
Noon

Fri, Oct 22
1:00 pm

Fri, Oct 22
2:00 pm

Fri, Oct 22
3:00 pm

Fri, Oct 22
4:00 pm

Fri, Oct 22
5:00 pm
SunnyClearClearPartly CloudyPartly CloudyPatchy Rain PossiblePartly CloudyClearClearPartly CloudyPartly CloudyCloudyThundery Outbreaks PossibleLight Rain ShowerLight Rain ShowerPartly CloudyCloudyOvercastPartly CloudyPartly CloudyOvercastPatchy Rain PossibleCloudyPatchy Rain PossibleOvercastCloudyCloudyOvercastOvercastOvercastOvercastOvercastPatchy Rain PossibleClearClearClearCloudyOvercastPartly CloudySunnyPartly CloudyPartly CloudyPartly CloudySunnyCloudyOvercastOvercastOvercast
Sunny Clear Clear Partly cloudy Partly cloudy Patchy rain possible Partly cloudy Clear Clear Partly cloudy Partly cloudy Cloudy Thundery outbreaks possible Light rain showers Light rain showers Partly cloudy Cloudy Overcast Partly cloudy Partly cloudy Overcast Patchy rain possible Cloudy Patchy rain possible Overcast Cloudy Cloudy Overcast Overcast Overcast Overcast Overcast Patchy rain possible Clear Clear Clear Cloudy Overcast Partly cloudy Sunny Partly cloudy Partly cloudy Partly cloudy Sunny Cloudy Overcast Overcast Overcast
64°F
18°C
60°F
16°C
58°F
14°C
57°F
14°C
56°F
13°C
56°F
13°C
55°F
13°C
54°F
12°C
54°F
12°C
56°F
13°C
56°F
13°C
56°F
13°C
56°F
13°C
56°F
13°C
55°F
13°C
56°F
13°C
58°F
15°C
61°F
16°C
63°F
17°C
64°F
18°C
63°F
17°C
60°F
15°C
57°F
14°C
56°F
14°C
55°F
13°C
55°F
13°C
54°F
12°C
54°F
12°C
53°F
12°C
52°F
11°C
50°F
10°C
49°F
10°C
48°F
9°C
45°F
7°C
42°F
6°C
40°F
5°C
40°F
4°C
39°F
4°C
39°F
4°C
40°F
5°C
44°F
7°C
47°F
8°C
49°F
9°C
50°F
10°C
51°F
10°C
52°F
11°C
52°F
11°C
51°F
11°C
51°F
11°C
49°F
9°C
47°F
8°C
48°F
9°C
49°F
10°C
50°F
10°C
49°F
10°C
50°F
10°C
51°F
10°C
51°F
11°C
50°F
10°C
50°F
10°C
51°F
10°C
53°F
12°C
52°F
11°C
53°F
12°C
54°F
12°C
55°F
13°C
53°F
12°C
49°F
10°C
48°F
9°C
49°F
10°C
49°F
9°C
48°F
9°C
47°F
8°C
47°F
8°C
47°F
8°C
48°F
9°C
48°F
9°C
46°F
8°C
44°F
7°C
43°F
6°C
38°F
4°C
33°F
1°C
32°F
-0°C
31°F
-0°C
31°F
-0°C
32°F
-0°C
32°F
0°C
34°F
1°C
34°F
1°C
34°F
1°C
35°F
2°C
36°F
2°C
35°F
2°C
36°F
2°C
36°F
2°C
36°F
2°C
29.97 in
1015 mb
29.97 in
1015 mb
29.97 in
1015 mb
29.97 in
1015 mb
29.97 in
1015 mb
29.97 in
1015 mb
29.94 in
1014 mb
29.91 in
1013 mb
29.91 in
1013 mb
29.88 in
1012 mb
29.85 in
1011 mb
29.83 in
1010 mb
29.83 in
1010 mb
29.8 in
1009 mb
29.8 in
1009 mb
29.8 in
1009 mb
29.8 in
1009 mb
29.77 in
1008 mb
29.77 in
1008 mb
29.74 in
1007 mb
29.74 in
1007 mb
29.74 in
1007 mb
29.77 in
1008 mb
29.8 in
1009 mb
29.8 in
1009 mb
29.83 in
1010 mb
29.85 in
1011 mb
29.85 in
1011 mb
29.88 in
1012 mb
29.91 in
1013 mb
29.91 in
1013 mb
29.94 in
1014 mb
29.97 in
1015 mb
29.97 in
1015 mb
29.97 in
1015 mb
30 in
1016 mb
30 in
1016 mb
30.03 in
1017 mb
30.03 in
1017 mb
30.06 in
1018 mb
30.06 in
1018 mb
30.06 in
1018 mb
30.06 in
1018 mb
30.06 in
1018 mb
30.03 in
1017 mb
30 in
1016 mb
30 in
1016 mb
30 in
1016 mb
63%66%67%72%78%79%81%86%89%84%82%80%83%90%89%89%86%81%70%59%58%68%73%73%74%75%77%80%81%81%79%79%69%63%67%70%72%75%78%77%67%61%59%57%55%54%54%54%
SWSWSWSWSWSSWSSWSSWSSWSSWSSWSSWSWSSWSSWSSWSWSWWSWWSWWSWWWWWWWWNNWNNWNNWNNWNNWNNWNNWNNWNNWNWNWNNWNNWNNWNNWNNWNWNWNWNW
7 mph
11 km/h
7 mph
12 km/h
6 mph
10 km/h
7 mph
12 km/h
8 mph
12 km/h
8 mph
12 km/h
8 mph
13 km/h
9 mph
14 km/h
7 mph
12 km/h
10 mph
15 km/h
8 mph
13 km/h
10 mph
16 km/h
12 mph
20 km/h
13 mph
20 km/h
13 mph
21 km/h
13 mph
20 km/h
14 mph
23 km/h
16 mph
26 km/h
17 mph
27 km/h
18 mph
28 km/h
19 mph
31 km/h
16 mph
25 km/h
15 mph
24 km/h
15 mph
24 km/h
14 mph
23 km/h
13 mph
20 km/h
12 mph
19 km/h
10 mph
16 km/h
11 mph
18 km/h
10 mph
17 km/h
11 mph
17 km/h
9 mph
15 km/h
12 mph
19 km/h
12 mph
19 km/h
10 mph
15 km/h
9 mph
14 km/h
8 mph
13 km/h
7 mph
12 km/h
7 mph
12 km/h
7 mph
11 km/h
9 mph
14 km/h
8 mph
13 km/h
7 mph
12 km/h
6 mph
10 km/h
6 mph
10 km/h
6 mph
10 km/h
5 mph
9 km/h
5 mph
9 km/h
0%0%0%0%0%62%0%0%0%0%0%0%0%65%85%0%0%0%0%0%0%82%0%73%0%0%0%0%0%0%0%0%78%0%0%0%0%0%0%0%0%0%0%0%0%0%0%0%
6 mi
10 km
6 mi
10 km
6 mi
10 km
6 mi
10 km
6 mi
10 km
6 mi
9 km
6 mi
10 km
6 mi
10 km
6 mi
10 km
6 mi
10 km
6 mi
10 km
6 mi
10 km
6 mi
9 km
6 mi
10 km
6 mi
10 km
6 mi
10 km
6 mi
10 km
6 mi
10 km
6 mi
10 km
6 mi
10 km
6 mi
10 km
6 mi
10 km
6 mi
10 km
6 mi
10 km
6 mi
10 km
6 mi
10 km
6 mi
10 km
6 mi
10 km
6 mi
10 km
6 mi
10 km
6 mi
10 km
6 mi
10 km
6 mi
10 km
6 mi
10 km
6 mi
10 km
6 mi
10 km
6 mi
10 km
6 mi
10 km
6 mi
10 km
6 mi
10 km
6 mi
10 km
6 mi
10 km
6 mi
10 km
6 mi
10 km
6 mi
10 km
6 mi
10 km
6 mi
10 km
6 mi
10 km

Day/Time
Weather
Condition
Temperature
Dew Point
Pressure
Humidity
Wind Direction
Wind Speed
Prob Precip %
Visibility
Prob Precip % = Probability of Precipitation.